Total_Precipitation_Accumulation
1.93 2.24 2.68 3.38 3.83 4.00 4.10 4.28 4.28 4.34 4.37 4.36 4.38 4.58 4.79 4.81 4.77 4.89 4.94 4.82 4.75 4.88 5.18 5.21 5.08 4.77 4.50 4.32 4.32 4.33 4.12 3.82 3.67 3.72 3.53 3.15 2.78 2.68 2.59 2.54 2.51 2.35 2.34
1.81 2.23 2.69 3.14 3.42 3.77 3.99 4.25 4.27 4.41 4.66 5.05 5.57 5.87 6.00 5.87 5.68 5.57 5.52 5.39 5.29 5.39 5.46 5.53 5.21 4.88 4.73 4.48 4.25 4.23 4.07 3.79 3.74 3.82 3.89 3.47 3.16 2.64 2.25 2.35 2.34 2.28 2.30
1.79 2.12 2.34 2.71 3.00 3.38 3.73 4.04 4.39 4.79 5.28 5.94 6.75 7.09 6.86 6.42 6.18 5.87 5.80 5.57 5.34 5.30 5.42 5.15 4.92 4.75 4.58 4.39 4.22 4.24 4.18 3.82 3.69 3.81 4.06 3.75 3.36 2.95 2.56 2.30 2.21 2.29 2.33
1.77 1.91 2.15 2.44 2.64 3.01 3.49 3.98 4.54 5.14 5.80 6.43 6.90 7.15 7.04 6.76 6.43 5.96 5.56 5.18 4.86 4.65 4.55 4.43 4.23 4.17 4.06 3.94 3.76 3.82 3.91 3.82 3.55 3.49 3.32 3.27 3.14 3.09 2.80 2.50 2.30 2.27 2.31
1.62 1.73 1.91 2.17 2.48 2.92 3.40 3.90 4.43 5.16 5.66 6.21 6.63 6.90 6.92 6.81 6.42 5.71 5.03 4.59 4.24 3.98 3.69 3.48 3.40 3.41 3.41 3.25 3.09 3.14 3.20 3.18 3.15 3.12 2.96 2.92 2.92 2.84 2.72 2.62 2.53 2.44 2.26
1.71 1.73 1.78 1.96 2.42 2.84 3.36 3.73 4.09 4.84 5.55 6.06 6.42 6.73 6.73 6.53 5.89 5.15 4.55 4.16 3.85 3.58 3.30 3.12 2.99 2.95 2.89 2.75 2.64 2.65 2.67 2.70 2.73 2.84 2.85 2.75 2.68 2.62 2.65 2.49 2.40 2.37 2.22
1.60 1.62 1.83 1.99 2.51 2.91 3.21 3.47 3.74 4.20 4.73 5.21 5.53 5.75 5.79 5.53 5.09 4.67 4.18 3.81 3.56 3.28 2.94 2.60 2.46 2.40 2.44 2.45 2.45 2.45 2.41 2.43 2.46 2.44 2.46 2.47 2.38 2.42 2.51 2.51 2.37 2.26 2.15
1.55 1.55 1.79 2.03 2.22 2.49 2.75 3.05 3.27 3.53 3.81 4.07 4.34 4.31 4.32 4.29 4.09 3.72 3.30 3.02 2.72 2.54 2.40 2.18 2.05 2.02 2.08 2.12 2.21 2.18 2.06 2.08 2.21 2.23 2.33 2.30 2.22 2.32 2.37 2.49 2.60 2.55 2.33
1.52 1.60 1.79 1.93 2.01 2.17 2.39 2.60 2.72 2.91 3.00 2.97 2.97 3.03 3.02 3.06 3.05 2.90 2.60 2.29 2.04 1.88 1.85 1.82 1.81 1.68 1.72 1.84 1.92 1.88 1.84 1.90 1.96 2.00 2.11 2.14 2.12 2.19 2.20 2.30 2.50 2.74 2.66
1.54 1.62 1.75 1.92 2.02 2.03 2.21 2.31 2.30 2.35 2.43 2.47 2.36 2.26 2.34 2.40 2.40 2.35 2.17 1.96 1.78 1.62 1.54 1.54 1.52 1.43 1.44 1.56 1.67 1.66 1.75 1.84 1.79 1.79 1.85 1.84 1.84 2.06 2.15 2.20 2.34 2.59 2.75
1.64 1.73 1.71 1.74 1.79 1.80 1.84 1.90 1.92 1.98 2.00 2.01 2.02 2.01 1.95 1.90 1.89 1.93 1.88 1.75 1.65 1.54 1.47 1.38 1.39 1.40 1.35 1.38 1.46 1.45 1.50 1.62 1.65 1.61 1.63 1.65 1.76 1.89 1.92 2.02 2.14 2.38 2.66
1.75 1.82 1.78 1.68 1.70 1.76 1.79 1.77 1.78 1.78 1.80 1.78 1.82 1.89 1.76 1.66 1.64 1.66 1.64 1.51 1.48 1.45 1.40 1.34 1.32 1.30 1.29 1.29 1.28 1.24 1.28 1.41 1.43 1.43 1.48 1.38 1.46 1.66 1.77 1.89 1.96 2.11 2.31
1.92 2.02 1.95 1.76 1.70 1.69 1.67 1.56 1.53 1.54 1.41 1.39 1.51 1.63 1.52 1.42 1.44 1.43 1.42 1.41 1.36 1.34 1.25 1.21 1.17 1.13 1.18 1.22 1.22 1.18 1.19 1.19 1.22 1.28 1.33 1.34 1.48 1.58 1.71 1.83 1.87 2.00 2.05
1.87 1.98 2.00 1.80 1.74 1.60 1.55 1.41 1.31 1.31 1.29 1.26 1.28 1.35 1.38 1.36 1.32 1.30 1.30 1.27 1.22 1.18 1.10 1.04 1.03 1.06 1.04 1.03 1.07 1.09 1.11 1.14 1.15 1.20 1.23 1.29 1.41 1.54 1.74 1.79 1.89 2.03 2.14
1.89 2.00 1.92 1.72 1.71 1.68 1.59 1.37 1.27 1.27 1.27 1.30 1.32 1.30 1.29 1.24 1.24 1.25 1.22 1.13 1.11 1.06 1.03 0.99 0.99 0.99 0.97 0.89 0.93 1.05 1.09 1.20 1.25 1.26 1.23 1.18 1.23 1.39 1.54 1.60 1.84 2.10 2.25
1.94 1.89 1.81 1.75 1.74 1.71 1.65 1.44 1.28 1.22 1.25 1.34 1.36 1.32 1.30 1.25 1.24 1.26 1.25 1.20 1.18 1.15 1.07 1.07 1.02 0.95 0.82 0.85 0.89 0.94 1.09 1.19 1.22 1.30 1.28 1.11 1.07 1.11 1.18 1.27 1.41 1.73 2.01
2.21 2.11 1.96 1.95 1.96 1.83 1.65 1.54 1.37 1.28 1.28 1.31 1.28 1.34 1.34 1.27 1.21 1.19 1.30 1.28 1.30 1.22 1.14 1.10 1.05 0.98 0.88 0.82 0.75 0.76 0.92 1.12 1.22 1.28 1.31 1.11 0.96 1.08 1.15 1.16 1.16 1.30 1.55
2.19 2.13 2.03 2.05 2.00 1.86 1.76 1.64 1.44 1.31 1.27 1.25 1.18 1.20 1.24 1.26 1.22 1.23 1.28 1.31 1.37 1.34 1.21 1.08 1.06 1.06 0.85 0.78 0.72 0.73 0.85 1.04 1.12 1.12 1.16 1.22 1.21 1.10 1.12 1.19 1.28 1.43 1.54
1.99 1.99 1.98 2.03 1.95 1.83 1.73 1.64 1.49 1.30 1.17 1.15 1.14 1.09 1.06 1.08 1.10 1.10 1.20 1.35 1.40 1.35 1.16 1.05 1.07 1.03 0.86 0.79 0.75 0.75 0.87 1.00 1.03 0.97 0.94 0.99 1.03 0.98 1.04 1.22 1.47 1.65 1.82
1.79 1.77 1.76 1.79 1.81 1.75 1.67 1.63 1.58 1.39 1.17 1.03 0.98 1.00 1.05 1.04 1.04 1.08 1.18 1.21 1.28 1.28 1.14 1.03 1.02 0.96 0.87 0.77 0.68 0.70 0.78 0.92 0.96 1.00 0.95 0.97 0.97 0.95 1.06 1.26 1.61 1.82 1.90
1.70 1.56 1.46 1.48 1.52 1.51 1.48 1.48 1.43 1.28 1.01 0.89 0.87 0.91 0.93 0.95 0.94 1.06 1.12 1.12 1.10 1.18 1.18 1.11 1.03 0.94 0.79 0.67 0.63 0.62 0.65 0.76 0.89 0.95 1.00 1.02 1.02 0.97 1.07 1.29 1.56 1.78 1.82
1.62 1.46 1.37 1.28 1.21 1.18 1.26 1.32 1.18 0.98 0.87 0.82 0.81 0.80 0.81 0.74 0.76 0.98 1.06 1.07 1.14 1.12 1.09 1.13 1.09 0.94 0.79 0.60 0.49 0.48 0.53 0.64 0.89 1.00 1.01 1.03 1.04 1.01 1.13 1.26 1.56 1.84 1.98
1.44 1.30 1.19 1.09 0.99 1.03 1.09 1.06 0.97 0.83 0.74 0.79 0.83 0.80 0.75 0.77 0.75 0.80 0.87 0.95 1.06 1.01 0.93 0.94 0.94 0.83 0.71 0.57 0.43 0.37 0.40 0.52 0.67 0.86 1.00 0.99 0.94 1.07 1.33 1.51 1.69 1.91 2.07
1.29 1.15 1.12 1.05 0.97 0.92 0.85 0.82 0.71 0.70 0.73 0.81 0.86 0.85 0.82 0.81 0.77 0.73 0.67 0.68 0.74 0.79 0.85 0.85 0.82 0.77 0.70 0.52 0.40 0.38 0.39 0.46 0.55 0.70 0.90 1.04 1.10 1.25 1.54 1.78 1.91 1.99 1.97
1.14 1.04 1.13 1.08 0.99 0.86 0.77 0.69 0.63 0.66 0.82 0.87 0.83 0.81 0.76 0.72 0.72 0.66 0.58 0.55 0.58 0.64 0.68 0.69 0.71 0.69 0.59 0.45 0.41 0.39 0.39 0.45 0.54 0.66 0.87 1.06 1.17 1.38 1.60 1.74 1.76 1.76 1.72
0.99 0.95 1.02 1.02 0.93 0.84 0.79 0.70 0.63 0.63 0.74 0.81 0.79 0.72 0.69 0.65 0.59 0.56 0.53 0.47 0.43 0.46 0.46 0.46 0.47 0.48 0.48 0.46 0.41 0.39 0.44 0.50 0.58 0.68 0.95 1.15 1.24 1.42 1.56 1.66 1.62 1.55 1.51